Date String (YYYY-MM-DD hh:mm:ss) UTC,Instrument flags,Ambient pressure (hPa),Sample flow (lpm),Bypass flow (lpm),Sample temperature (°C),Ambient temperature (°C),ASC tube jacket temperature (°C),LED temperature (°C),Box temperature (°C),Sample RH (%),Span deviation,Mass concentration (μg/m³),Mass concentration (μg/m³),Mass concentration (μg/m³)
DateTimeUTC,F1_M11,P_M11,Q1_M11,Q2_M11,T1_M11,T2_M11,T3_M11,T4_M11,T5_M11,U1_M11,ZSPAN_M11,X0_M11,X2_M11,X1_M11
2022-05-25 06:00:00,,0826.2,5.01,0.00,26.7,25.5,00.0,35.7,28.6,16.8,0000.0,0003.34,0002.34,0001.97
2022-05-25 06:01:00,,0826.2,4.99,0.00,26.7,25.5,00.0,35.7,28.6,16.8,0000.0,0003.50,0002.37,0001.97
2022-05-25 06:02:00,,0826.2,5.01,0.00,26.7,25.5,00.0,35.7,28.6,16.5,0000.0,0004.78,0002.41,0001.98
2022-05-25 06:03:00,,0826.2,5.00,0.00,26.7,25.5,00.0,35.7,28.6,16.4,0000.0,0004.82,0002.41,0001.97
2022-05-25 06:04:00,,0826.2,5.00,0.00,26.7,25.4,00.0,35.7,28.6,16.5,0000.0,0004.97,0002.45,0001.97
2022-05-25 06:05:00,,0826.2,4.99,0.00,26.7,25.4,00.0,35.7,28.5,16.6,0000.0,0004.96,0002.47,0001.97
2022-05-25 06:06:00,,0826.1,5.00,0.00,26.7,25.4,00.0,35.7,28.5,16.7,0000.0,0004.96,0002.48,0001.96
2022-05-25 06:07:00,,0826.1,5.00,0.00,26.7,25.4,00.0,35.6,28.5,16.9,0000.0,0004.95,0002.47,0001.96
2022-05-25 06:08:00,,0826.1,5.01,0.00,26.7,25.4,00.0,35.6,28.5,17.0,0000.0,0005.00,0002.51,0001.98
2022-05-25 06:09:00,,0826.0,5.00,0.00,26.7,25.4,00.0,35.6,28.5,17.1,0000.0,0005.03,0002.53,0001.99
2022-05-25 06:10:00,,0826.1,5.00,0.00,26.7,25.4,00.0,35.6,28.5,17.2,0000.0,0004.96,0002.51,0002.00
2022-05-25 06:11:00,,0826.1,5.00,0.00,26.7,25.4,00.0,35.6,28.5,17.1,0000.0,0004.99,0002.50,0001.99
2022-05-25 06:12:00,,0826.1,4.99,0.00,26.7,25.4,00.0,35.6,28.5,17.0,0000.0,0004.89,0002.47,0001.98
2022-05-25 06:13:00,,0826.2,5.01,0.00,26.7,25.4,00.0,35.6,28.5,17.3,0000.0,0004.07,0002.46,0001.98
2022-05-25 06:14:00,,0826.2,5.00,0.00,26.7,25.4,00.0,35.6,28.5,16.7,0000.0,0003.67,0002.47,0001.99
2022-05-25 06:15:00,,0826.1,5.00,0.00,26.6,25.4,00.0,35.6,28.5,16.8,0000.0,0003.45,0002.42,0001.98
2022-05-25 06:16:00,,0826.1,5.00,0.00,26.6,25.4,00.0,35.6,28.5,16.7,0000.0,0003.38,0002.40,0001.98
2022-05-25 06:17:00,,0826.0,5.01,0.00,26.6,25.5,00.0,35.6,28.5,16.6,0000.0,0003.34,0002.36,0001.98
2022-05-25 06:18:00,,0826.0,5.00,0.00,26.6,25.5,00.0,35.6,28.5,16.7,0000.0,0003.41,0002.36,0001.97
2022-05-25 06:19:00,,0826.0,4.99,0.00,26.6,25.5,00.0,35.6,28.5,16.7,0000.0,0003.45,0002.37,0001.96
2022-05-25 06:20:00,,0825.8,5.00,0.00,26.6,25.5,00.0,35.6,28.5,16.8,0000.0,0003.49,0002.37,0001.94
2022-05-25 06:21:00,,0825.9,5.00,0.00,26.6,25.5,00.0,35.6,28.5,16.6,0000.0,0003.49,0002.37,0001.93
2022-05-25 06:22:00,,0825.9,5.01,0.00,26.6,25.5,00.0,35.6,28.5,16.6,0000.0,0003.42,0002.35,0001.92
2022-05-25 06:23:00,,0825.8,4.98,0.00,26.6,25.5,00.0,35.6,28.5,16.6,0000.0,0003.32,0002.32,0001.91
2022-05-25 06:24:00,,0825.8,5.00,0.00,26.6,25.5,00.0,35.6,28.5,16.6,0000.0,0003.15,0002.25,0001.89
2022-05-25 06:25:00,,0825.7,5.00,0.00,26.6,25.5,00.0,35.6,28.5,16.5,0000.0,0003.07,0002.23,0001.88
2022-05-25 06:26:00,,0825.7,5.01,0.00,26.6,25.5,00.0,35.6,28.5,16.6,0000.0,0003.12,0002.24,0001.88
2022-05-25 06:27:00,,0825.7,4.99,0.00,26.6,25.5,00.0,35.6,28.5,16.5,0000.0,0003.09,0002.22,0001.86
2022-05-25 06:28:00,,0825.7,5.00,0.00,26.6,25.5,00.0,35.6,28.5,16.5,0000.0,0003.14,0002.24,0001.85
2022-05-25 06:29:00,,0825.6,4.99,0.00,26.6,25.5,00.0,35.6,28.5,16.4,0000.0,0003.10,0002.24,0001.84
2022-05-25 06:30:00,,0825.6,5.00,0.00,26.6,25.5,00.0,35.6,28.5,16.4,0000.0,0003.07,0002.22,0001.84
2022-05-25 06:31:00,,0825.6,5.01,0.00,26.6,25.5,00.0,35.6,28.5,16.3,0000.0,0003.02,0002.20,0001.82
2022-05-25 06:32:00,,0825.6,5.00,0.00,26.6,25.5,00.0,35.6,28.5,16.3,0000.0,0003.01,0002.18,0001.82
2022-05-25 06:33:00,,0825.6,5.01,0.00,26.6,25.5,00.0,35.6,28.5,16.3,0000.0,0002.97,0002.15,0001.81
2022-05-25 06:34:00,,0825.6,5.01,0.00,26.6,25.5,00.0,35.6,28.5,16.3,0000.0,0003.10,0002.19,0001.81
2022-05-25 06:35:00,,0825.5,4.99,0.00,26.6,25.5,00.0,35.6,28.5,16.3,0000.0,0003.25,0002.22,0001.82
2022-05-25 06:36:00,,0825.6,5.00,0.00,26.6,25.5,00.0,35.6,28.5,16.1,0000.0,0003.37,0002.27,0001.82
2022-05-25 06:37:00,,0825.6,5.00,0.00,26.6,25.5,00.0,35.6,28.5,16.3,0000.0,0003.36,0002.26,0001.82
2022-05-25 06:38:00,,0825.6,5.00,0.00,26.6,25.5,00.0,35.6,28.5,16.4,0000.0,0003.40,0002.29,0001.83
2022-05-25 06:39:00,,0825.5,5.01,0.00,26.6,25.5,00.0,35.6,28.5,16.6,0000.0,0003.49,0002.32,0001.85
2022-05-25 06:40:00,,0825.5,5.00,0.00,26.6,25.5,00.0,35.6,28.5,16.5,0000.0,0003.70,0002.37,0001.85
2022-05-25 06:41:00,,0825.5,5.00,0.00,26.6,25.5,00.0,35.6,28.5,16.6,0000.0,0003.79,0002.38,0001.85
2022-05-25 06:42:00,,0825.5,5.00,0.00,26.6,25.5,00.0,35.6,28.5,16.4,0000.0,0003.80,0002.39,0001.86
2022-05-25 06:43:00,,0825.5,5.00,0.00,26.6,25.5,00.0,35.6,28.5,16.4,0000.0,0003.80,0002.40,0001.87
2022-05-25 06:44:00,,0825.5,5.00,0.00,26.6,25.5,00.0,35.6,28.5,16.4,0000.0,0003.76,0002.39,0001.87
2022-05-25 06:45:00,,0825.5,5.00,0.00,26.6,25.5,00.0,35.6,28.5,16.4,0000.0,0003.70,0002.38,0001.87
2022-05-25 06:46:00,,0825.5,5.00,0.00,26.6,25.5,00.0,35.6,28.5,16.3,0000.0,0003.59,0002.38,0001.87
2022-05-25 06:47:00,,0825.5,5.00,0.00,26.6,25.5,00.0,35.6,28.5,16.3,0000.0,0003.51,0002.35,0001.88
2022-05-25 06:48:00,,0825.5,5.00,0.00,26.6,25.5,00.0,35.5,28.5,16.3,0000.0,0003.45,0002.33,0001.87
2022-05-25 06:49:00,,0825.5,5.00,0.00,26.6,25.5,00.0,35.6,28.5,16.3,0000.0,0003.38,0002.32,0001.87
2022-05-25 06:50:00,,0825.5,5.00,0.00,26.6,25.5,00.0,35.6,28.5,16.3,0000.0,0003.61,0002.32,0001.87
2022-05-25 06:51:00,,0825.5,5.00,0.00,26.6,25.5,00.0,35.5,28.5,16.2,0000.0,0003.50,0002.26,0001.87
2022-05-25 06:52:00,,0825.5,5.01,0.00,26.6,25.5,00.0,35.5,28.5,16.1,0000.0,0003.64,0002.31,0001.89
2022-05-25 06:53:00,,0825.5,5.00,0.00,26.6,25.5,00.0,35.5,28.5,16.1,0000.0,0003.67,0002.29,0001.88
2022-05-25 06:54:00,,0825.5,5.00,0.00,26.6,25.5,00.0,35.5,28.5,16.2,0000.0,0003.70,0002.30,0001.90
2022-05-25 06:55:00,,0825.5,4.99,0.00,26.6,25.5,00.0,35.5,28.5,16.1,0000.0,0003.79,0002.31,0001.90
2022-05-25 06:56:00,,0825.5,5.00,0.00,26.6,25.5,00.0,35.5,28.5,16.0,0000.0,0003.78,0002.31,0001.90
2022-05-25 06:57:00,,0825.5,5.00,0.00,26.6,25.5,00.0,35.5,28.5,16.0,0000.0,0004.10,0002.33,0001.92
2022-05-25 06:58:00,,0825.5,5.00,0.00,26.6,25.5,00.0,35.5,28.5,16.1,0000.0,0004.64,0002.34,0001.94
2022-05-25 06:59:00,,0825.5,5.00,0.00,26.6,25.5,00.0,35.5,28.5,16.0,0000.0,0004.73,0002.38,0001.96
